﻿_id,日時,平均風速(m/s),平均風向,最大瞬間風速(m/s),最大風速時風向,気温(℃),湿度(%),10分間移動積算雨量(mm),1時間移動積算雨量(mm),日雨量(mm),累計雨量(mm)
1,2022-08-22T00:00:00,0.8,南南西,1.1,南南西,24.1,97.8,0,0,3,18.5
2,2022-08-22T00:01:00,0.8,南南西,1.1,南南西,24.1,97.8,0,0,0,18.5
3,2022-08-22T00:02:00,0.8,南南西,1.2,南南東,24.1,97.8,0,0,0,18.5
4,2022-08-22T00:03:00,0.8,南,1.2,南南東,24.1,97.9,0,0,0,18.5
5,2022-08-22T00:04:00,0.8,南,1.3,南西,24.1,97.9,0,0,0,18.5
6,2022-08-22T00:05:00,0.8,南,1.3,南西,24.1,97.9,0,0,0,18.5
7,2022-08-22T00:06:00,0.8,南,1.3,南西,24.1,97.8,0,0,0,18.5
8,2022-08-22T00:07:00,0.7,南,1.3,南西,24.1,97.8,0,0,0,18.5
9,2022-08-22T00:08:00,0.7,南,1.3,南西,24.2,97.8,0,0,0,18.5
10,2022-08-22T00:09:00,0.7,南,1.3,南西,24.2,97.8,0,0,0,18.5
11,2022-08-22T00:10:00,0.8,南,1.3,南西,24.1,97.8,0,0,0,18.5
12,2022-08-22T00:11:00,0.8,南南西,1.3,南西,24.1,97.7,0,0,0,18.5
13,2022-08-22T00:12:00,0.7,南南西,1.3,南西,24.1,97.7,0,0,0,18.5
14,2022-08-22T00:13:00,0.6,南南西,1.3,南西,24.1,97.8,0,0,0,18.5
15,2022-08-22T00:14:00,0.6,南南西,1,南南西,24.1,97.8,0,0,0,18.5
16,2022-08-22T00:15:00,0.6,南南西,1,南南西,24.1,97.7,0,0,0,18.5
17,2022-08-22T00:16:00,0.6,南西,1,南南西,24.1,97.7,0,0,0,18.5
18,2022-08-22T00:17:00,0.7,南西,1,南南西,24.1,97.7,0,0,0,18.5
19,2022-08-22T00:18:00,0.6,南西,1,南南西,24.1,97.7,0,0,0,18.5
20,2022-08-22T00:19:00,0.6,南西,1,南南西,24.1,97.7,0,0,0,18.5
21,2022-08-22T00:20:00,0.6,南西,1,西南西,24.1,97.7,0,0,0,18.5
22,2022-08-22T00:21:00,0.6,南西,1,西南西,24.1,97.7,0,0,0,18.5
23,2022-08-22T00:22:00,0.6,西南西,1,西南西,24.1,97.7,0,0,0,18.5
24,2022-08-22T00:23:00,0.6,南西,1,西南西,24.1,97.7,0,0,0,18.5
25,2022-08-22T00:24:00,0.6,南西,1,西南西,24.1,97.8,0,0,0,18.5
26,2022-08-22T00:25:00,0.6,西南西,1,西南西,24.1,97.8,0,0,0,18.5
27,2022-08-22T00:26:00,0.6,西南西,1.3,西南西,24.1,97.8,0,0,0,18.5
28,2022-08-22T00:27:00,0.6,南西,1.3,西南西,24.2,97.8,0,0,0,18.5
29,2022-08-22T00:28:00,0.7,南西,1.3,西南西,24.2,97.8,0,0,0,18.5
30,2022-08-22T00:29:00,0.7,南西,1.3,西南西,24.2,97.7,0,0,0,18.5
31,2022-08-22T00:30:00,0.7,南西,1.3,西南西,24.1,97.7,0,0,0,18.5
32,2022-08-22T00:31:00,0.7,南西,1.3,西南西,24.1,97.7,0,0,0,18.5
33,2022-08-22T00:32:00,0.7,南西,1.3,西南西,24.1,97.7,0,0,0,18.5
34,2022-08-22T00:33:00,0.8,南西,1.3,西南西,24.1,97.7,0,0,0,18.5
35,2022-08-22T00:34:00,0.7,南西,1.3,西南西,24.1,97.8,0,0,0,18.5
36,2022-08-22T00:35:00,0.7,南西,1.3,西南西,24.1,97.7,0,0,0,18.5
37,2022-08-22T00:36:00,0.6,南西,1.2,西南西,24.2,97.7,0,0,0,18.5
38,2022-08-22T00:37:00,0.6,南西,1.1,南南西,24.1,97.7,0,0,0,18.5
39,2022-08-22T00:38:00,0.5,南西,1.1,南南西,24.1,97.7,0,0,0,18.5
40,2022-08-22T00:39:00,0.5,南西,1,南西,24.1,97.6,0,0,0,18.5
41,2022-08-22T00:40:00,0.5,南西,0.8,南南西,24.1,97.6,0,0,0,18.5
42,2022-08-22T00:41:00,0.5,南西,0.8,南南西,24.1,97.6,0,0,0,18.5
43,2022-08-22T00:42:00,0.5,南西,0.8,南南西,24.1,97.7,0,0,0,18.5
44,2022-08-22T00:43:00,0.5,南西,0.8,南南西,24.1,97.6,0,0,0,18.5
45,2022-08-22T00:44:00,0.6,南西,0.8,南南西,24.1,97.6,0,0,0,18.5
46,2022-08-22T00:45:00,0.6,南西,1,西南西,24.1,97.6,0,0,0,18.5
47,2022-08-22T00:46:00,0.7,南西,1,西南西,24.1,97.6,0,0,0,18.5
48,2022-08-22T00:47:00,0.7,南西,1,西南西,24.1,97.6,0,0,0,18.5
49,2022-08-22T00:48:00,0.8,南西,1,西南西,24.1,97.6,0,0,0,18.5
50,2022-08-22T00:49:00,0.8,南西,1,西南西,24.1,97.7,0,0,0,18.5
51,2022-08-22T00:50:00,0.7,南西,1,西南西,24.1,97.7,0,0,0,18.5
52,2022-08-22T00:51:00,0.7,南西,1,西南西,24.1,97.6,0,0,0,18.5
53,2022-08-22T00:52:00,0.8,南西,1,西南西,24.1,97.6,0,0,0,18.5
54,2022-08-22T00:53:00,0.7,南西,1,西南西,24.1,97.6,0,0,0,18.5
55,2022-08-22T00:54:00,0.7,南西,1,西南西,24.1,97.7,0,0,0,18.5
56,2022-08-22T00:55:00,0.7,南西,1.2,南西,24,97.7,0,0,0,18.5
57,2022-08-22T00:56:00,0.8,南西,1.2,南西,24,97.6,0,0,0,18.5
58,2022-08-22T00:57:00,0.8,南西,1.3,南西,24,97.6,0,0,0,18.5
59,2022-08-22T00:58:00,0.8,南西,1.4,西南西,23.9,97.7,0,0,0,18.5
60,2022-08-22T00:59:00,0.9,南西,1.4,西南西,23.9,97.7,0,0,0,18.5
61,2022-08-22T01:00:00,0.9,南西,1.4,西南西,23.9,97.8,0,0,0,18.5
62,2022-08-22T01:01:00,0.9,南西,1.4,西南西,24,97.8,0,0,0,18.5
63,2022-08-22T01:02:00,0.9,西南西,1.4,西南西,24,97.8,0,0,0,18.5
64,2022-08-22T01:03:00,0.9,西南西,1.4,西南西,24,97.7,0,0,0,18.5
65,2022-08-22T01:04:00,0.9,西,1.4,西南西,24,97.7,0,0,0,18.5
66,2022-08-22T01:05:00,0.9,西北西,1.4,西南西,24,97.7,0,0,0,18.5
67,2022-08-22T01:06:00,0.9,西北西,1.4,西南西,24,97.7,0,0,0,18.5
68,2022-08-22T01:07:00,0.8,北西,1.4,西南西,24,97.7,0,0,0,18.5
69,2022-08-22T01:08:00,0.8,北西,1.2,北,24,97.8,0,0,0,18.5
70,2022-08-22T01:09:00,0.8,北北西,1.2,北,24,97.8,0,0,0,18.5
71,2022-08-22T01:10:00,0.8,北北西,1.2,北,23.9,97.8,0,0,0,18.5
72,2022-08-22T01:11:00,0.8,北北西,1.2,北,23.9,97.9,0,0,0,18.5
73,2022-08-22T01:12:00,0.9,北,1.2,北,23.9,97.9,0,0,0,18.5
74,2022-08-22T01:13:00,0.9,北,1.2,北,23.9,97.9,0,0,0,18.5
75,2022-08-22T01:14:00,0.9,北,1.2,北,23.9,97.9,0,0,0,18.5
76,2022-08-22T01:15:00,0.9,北,1.2,北,23.9,97.9,0,0,0,18.5
77,2022-08-22T01:16:00,0.9,北,1.2,北,23.9,97.9,0,0,0,18.5
78,2022-08-22T01:17:00,1,北,1.2,北,23.9,97.9,0,0,0,18.5
79,2022-08-22T01:18:00,1,北,1.2,北北西,23.9,97.9,0,0,0,18.5
80,2022-08-22T01:19:00,1,北,1.2,北北西,23.8,97.9,0,0,0,18.5
81,2022-08-22T01:20:00,1,北,1.2,北北西,23.8,97.9,0,0,0,18.5
82,2022-08-22T01:21:00,1,北,1.2,北北西,23.8,98,0,0,0,18.5
83,2022-08-22T01:22:00,1.1,北,1.2,北北西,23.8,98,0,0,0,18.5
84,2022-08-22T01:23:00,1.1,北,1.2,北北西,23.8,98,0,0,0,18.5
85,2022-08-22T01:24:00,1.1,北,1.2,北北西,23.8,98,0,0,0,18.5
86,2022-08-22T01:25:00,1.1,北,1.2,北北西,23.8,98,0,0,0,18.5
87,2022-08-22T01:26:00,1,北,1.2,北北西,23.8,98,0,0,0,18.5
88,2022-08-22T01:27:00,0.9,北,1.2,北北西,23.8,98.1,0,0,0,18.5
89,2022-08-22T01:28:00,0.9,北,1.2,北,23.9,98.1,0,0,0,18.5
90,2022-08-22T01:29:00,0.8,北,1.2,北,23.8,98,0,0,0,18.5
91,2022-08-22T01:30:00,0.7,北北東,1.2,北,23.9,98,0,0,0,18.5
92,2022-08-22T01:31:00,0.7,北北東,1.2,北,23.9,98.1,0,0,0,18.5
93,2022-08-22T01:32:00,0.6,北北東,1.1,北,23.9,98,0,0,0,18.5
94,2022-08-22T01:33:00,0.5,北北東,1.1,北,23.9,98,0,0,0,18.5
95,2022-08-22T01:34:00,0.4,北北東,0.8,北北東,23.9,98.1,0,0,0,18.5
96,2022-08-22T01:35:00,0.4,北北東,0.7,北,23.9,98,0,0,0,18.5
97,2022-08-22T01:36:00,0.4,北,0.6,北西,23.9,98,0,0,0,18.5
98,2022-08-22T01:37:00,0.4,北,0.7,北北西,23.9,97.9,0,0,0,18.5
99,2022-08-22T01:38:00,0.4,北,0.7,北北西,23.9,97.9,0,0,0,18.5
100,2022-08-22T01:39:00,0.4,北,0.7,北北西,23.9,97.9,0,0,0,18.5
101,2022-08-22T01:40:00,0.4,北,0.7,北北西,23.8,97.9,0,0,0,18.5
102,2022-08-22T01:41:00,0.4,北,0.7,北北西,23.9,98,0,0,0,18.5
103,2022-08-22T01:42:00,0.3,北北西,0.7,北北西,23.8,98,0,0,0,18.5
104,2022-08-22T01:43:00,0.3,北北西,0.7,北北西,23.9,98,0,0,0,18.5
105,2022-08-22T01:44:00,0.3,北北西,0.7,北北西,23.9,98,0,0,0,18.5
106,2022-08-22T01:45:00,0.3,北北西,0.7,北北西,23.9,98,0,0,0,18.5
107,2022-08-22T01:46:00,0.2,静穏,0.7,北北西,23.9,98,0,0,0,18.5
108,2022-08-22T01:47:00,0.2,静穏,0.6,北北西,23.9,98,0,0,0,18.5
109,2022-08-22T01:48:00,0.2,静穏,0.5,北北東,23.9,98,0,0,0,18.5
110,2022-08-22T01:49:00,0.1,静穏,0.5,北北東,23.9,98,0,0,0,18.5
111,2022-08-22T01:50:00,0.1,静穏,0.5,西南西,23.9,98,0,0,0,18.5
112,2022-08-22T01:51:00,0.2,静穏,0.5,西南西,23.9,97.9,0,0,0,18.5
113,2022-08-22T01:52:00,0.2,静穏,0.5,西南西,23.9,97.9,0,0,0,18.5
114,2022-08-22T01:53:00,0.3,西南西,0.5,西南西,23.9,97.9,0,0,0,18.5
115,2022-08-22T01:54:00,0.3,西南西,0.6,西南西,23.9,97.9,0,0,0,18.5
116,2022-08-22T01:55:00,0.4,西南西,0.6,西南西,23.9,97.9,0,0,0,18.5
117,2022-08-22T01:56:00,0.4,西南西,0.6,西南西,23.9,97.9,0,0,0,18.5
118,2022-08-22T01:57:00,0.4,西南西,0.8,西南西,23.9,97.9,0,0,0,18.5
119,2022-08-22T01:58:00,0.5,西南西,0.8,西南西,23.9,97.9,0,0,0,18.5
120,2022-08-22T01:59:00,0.5,西南西,0.8,西南西,23.9,97.9,0,0,0,18.5
121,2022-08-22T02:00:00,0.5,西南西,0.8,西南西,23.9,97.9,0,0,0,18.5
122,2022-08-22T02:01:00,0.5,西南西,0.8,西南西,23.9,97.9,0,0,0,18.5
123,2022-08-22T02:02:00,0.5,西南西,0.8,西南西,23.9,97.9,0,0,0,18.5
124,2022-08-22T02:03:00,0.5,西南西,0.8,西南西,23.9,97.9,0,0,0,18.5
125,2022-08-22T02:04:00,0.4,南西,0.8,西南西,23.9,97.9,0,0,0,18.5
126,2022-08-22T02:05:00,0.4,南西,0.8,西南西,23.9,97.9,0,0,0,18.5
127,2022-08-22T02:06:00,0.4,西南西,0.8,西南西,23.9,97.9,0,0,0,18.5
128,2022-08-22T02:07:00,0.3,西南西,0.7,西南西,23.9,97.9,0,0,0,18.5
129,2022-08-22T02:08:00,0.3,西南西,0.6,南西,24,97.9,0,0,0,18.5
130,2022-08-22T02:09:00,0.3,西南西,0.6,南西,24,97.9,0,0,0,18.5
131,2022-08-22T02:10:00,0.3,西南西,0.8,北西,23.9,97.8,0,0,0,18.5
132,2022-08-22T02:11:00,0.4,西,1,北西,23.9,97.8,0,0,0,18.5
133,2022-08-22T02:12:00,0.4,西,1,北西,23.9,97.8,0,0,0,18.5
134,2022-08-22T02:13:00,0.5,西北西,1.2,北北西,23.9,97.8,0,0,0,18.5
135,2022-08-22T02:14:00,0.7,西北西,1.6,北北西,23.9,97.9,0,0,0,18.5
136,2022-08-22T02:15:00,0.8,北西,1.7,北北西,23.8,97.9,0,0,0,18.5
137,2022-08-22T02:16:00,0.9,北西,1.9,北北西,23.8,97.9,0,0,0,18.5
138,2022-08-22T02:17:00,1,北西,1.9,北北西,23.8,98,0,0,0,18.5
139,2022-08-22T02:18:00,1.1,北西,1.9,北北西,23.8,98,0,0,0,18.5
140,2022-08-22T02:19:00,1.1,北北西,1.9,北北西,23.8,98,0,0,0,18.5
141,2022-08-22T02:20:00,1.2,北北西,1.9,北北西,23.8,98,0,0,0,18.5
142,2022-08-22T02:21:00,1.2,北北西,1.9,北北西,23.8,98,0,0,0,18.5
143,2022-08-22T02:22:00,1.2,北北西,1.9,北北西,23.8,98.1,0,0,0,18.5
144,2022-08-22T02:23:00,1.2,北,1.9,北北西,23.8,98.1,0,0,0,18.5
145,2022-08-22T02:24:00,1.2,北,1.9,北北西,23.8,98.1,0,0,0,18.5
146,2022-08-22T02:25:00,1.1,北,1.9,北北西,23.8,98.1,0,0,0,18.5
147,2022-08-22T02:26:00,1,北,1.6,北北西,23.8,98.1,0,0,0,18.5
148,2022-08-22T02:27:00,0.9,北北東,1.5,北北西,23.7,98.1,0,0,0,18.5
149,2022-08-22T02:28:00,0.8,北北東,1.4,北,23.7,98.2,0,0,0,18.5
150,2022-08-22T02:29:00,0.8,北北東,1.4,北,23.7,98.2,0,0,0,18.5
151,2022-08-22T02:30:00,0.7,北東,1.2,北,23.7,98.1,0,0,0,18.5
152,2022-08-22T02:31:00,0.7,北東,1.1,北北東,23.7,98.1,0,0,0,18.5
153,2022-08-22T02:32:00,0.6,北東,1.1,北北東,23.7,98.2,0,0,0,18.5
154,2022-08-22T02:33:00,0.5,北東,0.8,東北東,23.8,98.2,0,0,0,18.5
155,2022-08-22T02:34:00,0.5,北東,0.8,東北東,23.8,98.2,0,0,0,18.5
156,2022-08-22T02:35:00,0.4,北東,0.8,東北東,23.8,98.1,0,0,0,18.5
157,2022-08-22T02:36:00,0.4,北東,0.7,北東,23.8,98.1,0,0,0,18.5
158,2022-08-22T02:37:00,0.4,東北東,0.7,北東,23.8,98,0,0,0,18.5
159,2022-08-22T02:38:00,0.3,東北東,0.7,北東,23.8,98,0,0,0,18.5
160,2022-08-22T02:39:00,0.3,東北東,0.6,南南東,23.8,98,0,0,0,18.5
161,2022-08-22T02:40:00,0.3,東,0.6,南南東,23.8,98,0,0,0,18.5
162,2022-08-22T02:41:00,0.3,東,0.6,南南東,23.8,98,0,0,0,18.5
163,2022-08-22T02:42:00,0.2,静穏,0.6,南南東,23.8,98,0,0,0,18.5
164,2022-08-22T02:43:00,0.2,静穏,0.6,南南東,23.8,97.9,0,0,0,18.5
165,2022-08-22T02:44:00,0.2,静穏,0.6,南南東,23.8,97.9,0,0,0,18.5
166,2022-08-22T02:45:00,0.2,静穏,0.6,南南東,23.8,97.9,0,0,0,18.5
167,2022-08-22T02:46:00,0.2,静穏,0.6,南南東,23.8,97.9,0,0,0,18.5
168,2022-08-22T02:47:00,0.1,静穏,0.6,南南東,23.8,97.9,0,0,0,18.5
169,2022-08-22T02:48:00,0.1,静穏,0.6,南南東,23.8,97.9,0,0,0,18.5
170,2022-08-22T02:49:00,0.1,静穏,0.4,東,23.8,97.9,0,0,0,18.5
171,2022-08-22T02:50:00,0.1,静穏,0.4,南西,23.8,97.9,0,0,0,18.5
172,2022-08-22T02:51:00,0.2,静穏,0.6,南西,23.8,97.9,0,0,0,18.5
173,2022-08-22T02:52:00,0.2,静穏,0.6,南西,23.8,98,0,0,0,18.5
174,2022-08-22T02:53:00,0.3,西南西,0.8,南西,23.8,97.9,0,0,0,18.5
175,2022-08-22T02:54:00,0.3,南西,0.8,南西,23.8,97.9,0,0,0,18.5
176,2022-08-22T02:55:00,0.4,南西,0.8,南西,23.8,98,0,0,0,18.5
177,2022-08-22T02:56:00,0.5,南西,0.9,南南西,23.8,98,0,0,0,18.5
178,2022-08-22T02:57:00,0.5,南西,1,南南西,23.8,98,0,0,0,18.5
179,2022-08-22T02:58:00,0.6,南西,1,南南西,23.8,98.1,0,0,0,18.5
180,2022-08-22T02:59:00,0.6,南西,1.1,南南西,23.8,98.1,0,0,0,18.5
181,2022-08-22T03:00:00,0.7,南南西,1.1,南南西,23.8,98,0,0,0,18.5
182,2022-08-22T03:01:00,0.8,南南西,1.1,南南西,23.8,98,0,0,0,18.5
183,2022-08-22T03:02:00,0.8,南南西,1.2,南南西,23.7,98,0,0,0,18.5
184,2022-08-22T03:03:00,0.9,南南西,1.3,南南西,23.7,98,0,0,0,18.5
185,2022-08-22T03:04:00,0.9,南南西,1.6,南南西,23.7,98.1,0,0,0,18.5
186,2022-08-22T03:05:00,1,南南西,1.6,南南西,23.7,98.1,0,0,0,18.5
187,2022-08-22T03:06:00,1,南南西,1.6,南南西,23.7,98.1,0,0,0,18.5
188,2022-08-22T03:07:00,1.1,南南西,1.6,南南西,23.7,98.1,0,0,0,18.5
189,2022-08-22T03:08:00,1.1,南南西,1.6,南南西,23.7,98.1,0,0,0,18.5
190,2022-08-22T03:09:00,1.1,南南西,1.6,南南西,23.6,98.1,0,0,0,18.5
191,2022-08-22T03:10:00,1.1,南南西,1.6,南南西,23.6,98.2,0,0,0,18.5
192,2022-08-22T03:11:00,1.1,南南西,1.6,南南西,23.6,98.1,0,0,0,18.5
193,2022-08-22T03:12:00,1.1,南西,1.6,南南西,23.6,98.1,0,0,0,18.5
194,2022-08-22T03:13:00,1.1,南西,1.6,南南西,23.6,98.1,0,0,0,18.5
195,2022-08-22T03:14:00,1,南西,1.3,西南西,23.6,98.1,0,0,0,18.5
196,2022-08-22T03:15:00,1,南西,1.3,西南西,23.6,98.2,0,0,0,18.5
197,2022-08-22T03:16:00,1,南西,1.3,西南西,23.6,98.2,0,0,0,18.5
198,2022-08-22T03:17:00,0.9,南西,1.3,西南西,23.6,98.2,0,0,0,18.5
199,2022-08-22T03:18:00,0.9,南西,1.3,西南西,23.6,98.2,0,0,0,18.5
200,2022-08-22T03:19:00,0.9,南西,1.3,西南西,23.6,98.2,0,0,0,18.5
201,2022-08-22T03:20:00,0.9,南西,1.3,西南西,23.6,98.2,0,0,0,18.5
202,2022-08-22T03:21:00,0.9,南西,1.3,西南西,23.6,98.2,0,0,0,18.5
203,2022-08-22T03:22:00,0.8,南西,1.3,西南西,23.6,98.2,0,0,0,18.5
204,2022-08-22T03:23:00,0.8,南西,1.3,西南西,23.6,98.2,0,0,0,18.5
205,2022-08-22T03:24:00,0.7,南南西,1.1,西南西,23.6,98.2,0,0,0,18.5
206,2022-08-22T03:25:00,0.7,南南西,1,西南西,23.6,98.2,0,0,0,18.5
207,2022-08-22T03:26:00,0.7,南南西,0.9,南,23.6,98.2,0,0,0,18.5
208,2022-08-22T03:27:00,0.7,南南西,0.9,南,23.6,98.2,0,0,0,18.5
209,2022-08-22T03:28:00,0.7,南,1.3,南南東,23.6,98.2,0,0,0,18.5
210,2022-08-22T03:29:00,0.7,南,1.4,南南東,23.6,98.2,0,0,0,18.5
211,2022-08-22T03:30:00,0.8,南,1.4,南南東,23.6,98.2,0,0,0,18.5
212,2022-08-22T03:31:00,0.8,南,1.4,南南東,23.6,98.2,0,0,0,18.5
213,2022-08-22T03:32:00,0.9,南,1.6,南,23.5,98.2,0,0,0,18.5
214,2022-08-22T03:33:00,1,南,1.6,南,23.5,98.2,0,0,0,18.5
215,2022-08-22T03:34:00,1,南,1.6,南,23.5,98.2,0,0,0,18.5
216,2022-08-22T03:35:00,1.1,南,1.6,南,23.5,98.1,0,0,0,18.5
217,2022-08-22T03:36:00,1.2,南,1.8,南南西,23.4,98.1,0,0,0,18.5
218,2022-08-22T03:37:00,1.3,南,1.9,南南西,23.4,98.1,0,0,0,18.5
219,2022-08-22T03:38:00,1.4,南南西,1.9,南南西,23.3,98.2,0,0,0,18.5
220,2022-08-22T03:39:00,1.4,南南西,1.9,南南西,23.3,98.2,0,0,0,18.5
221,2022-08-22T03:40:00,1.5,南南西,2.4,南西,23.3,98.2,0,0,0,18.5
222,2022-08-22T03:41:00,1.6,南南西,2.4,南西,23.3,98.3,0,0,0,18.5
223,2022-08-22T03:42:00,1.7,南南西,2.4,南西,23.3,98.3,0,0,0,18.5
224,2022-08-22T03:43:00,1.8,南南西,2.4,南西,23.3,98.4,0,0,0,18.5
225,2022-08-22T03:44:00,1.8,南南西,2.4,南西,23.3,98.3,0,0,0,18.5
226,2022-08-22T03:45:00,1.9,南南西,2.4,南西,23.3,98.4,0,0,0,18.5
227,2022-08-22T03:46:00,1.9,南南西,2.4,南西,23.3,98.4,0,0,0,18.5
228,2022-08-22T03:47:00,1.9,南南西,2.4,南西,23.3,98.4,0,0,0,18.5
229,2022-08-22T03:48:00,1.8,南南西,2.4,南西,23.3,98.4,0,0,0,18.5
230,2022-08-22T03:49:00,1.8,南南西,2.4,南西,23.4,98.5,0,0,0,18.5
231,2022-08-22T03:50:00,1.8,南南西,2.4,南南西,23.4,98.5,0,0,0,18.5
232,2022-08-22T03:51:00,1.7,南南西,2.4,南南西,23.3,98.5,0,0,0,18.5
233,2022-08-22T03:52:00,1.6,南南西,2.4,南南西,23.4,98.5,0,0,0,18.5
234,2022-08-22T03:53:00,1.5,南南西,2.1,南南西,23.4,98.5,0,0,0,18.5
235,2022-08-22T03:54:00,1.4,南南西,2.1,南南西,23.4,98.5,0,0,0,18.5
236,2022-08-22T03:55:00,1.4,南南西,2.1,南南西,23.4,98.5,0,0,0,18.5
237,2022-08-22T03:56:00,1.4,南南西,2.1,南南西,23.4,98.5,0,0,0,18.5
238,2022-08-22T03:57:00,1.3,南南西,2.1,南南西,23.4,98.5,0,0,0,18.5
239,2022-08-22T03:58:00,1.2,南,2.1,南南西,23.4,98.5,0,0,0,18.5
240,2022-08-22T03:59:00,,"",,"",,,,,,
241,2022-08-22T04:00:00,1,南,1.8,南,23.4,98.6,0,0,0,18.5
242,2022-08-22T04:01:00,1,南,1.7,南,23.4,98.6,0,0,0,18.5
243,2022-08-22T04:02:00,0.9,南南東,1.7,南,23.4,98.5,0,0,0,18.5
244,2022-08-22T04:03:00,0.8,南南東,1.7,南,23.4,98.6,0,0,0,18.5
245,2022-08-22T04:04:00,0.7,南東,1.7,南,23.5,98.6,0,0,0,18.5
246,2022-08-22T04:05:00,0.6,南東,1.6,南,23.4,98.5,0,0,0,18.5
247,2022-08-22T04:06:00,0.5,東南東,1.3,南,23.4,98.5,0,0,0,18.5
248,2022-08-22T04:07:00,0.4,東,1.3,南,23.4,98.5,0,0,0,18.5
249,2022-08-22T04:08:00,0.4,東,1.2,南,23.4,98.5,0,0,0,18.5
250,2022-08-22T04:09:00,0.3,東北東,0.8,東,23.4,98.4,0,0,0,18.5
251,2022-08-22T04:10:00,0.3,東北東,0.8,東,23.4,98.5,0,0,0,18.5
252,2022-08-22T04:11:00,0.3,東,0.6,東北東,23.4,98.5,0,0,0,18.5
253,2022-08-22T04:12:00,0.2,静穏,0.6,東北東,23.4,98.5,0,0,0,18.5
254,2022-08-22T04:13:00,0.2,静穏,0.6,東北東,23.4,98.5,0,0,0,18.5
255,2022-08-22T04:14:00,0.3,東南東,0.6,南西,23.4,98.5,0,0,0,18.5
256,2022-08-22T04:15:00,0.3,南東,0.6,南西,23.4,98.5,0,0,0,18.5
257,2022-08-22T04:16:00,0.3,南南東,0.7,南西,23.4,98.5,0,0,0,18.5
258,2022-08-22T04:17:00,0.3,南,0.7,南西,23.4,98.5,0,0,0,18.5
259,2022-08-22T04:18:00,0.4,南,0.8,南南西,23.4,98.5,0,0,0,18.5
260,2022-08-22T04:19:00,0.4,南,1,南南東,23.4,98.5,0,0,0,18.5
261,2022-08-22T04:20:00,0.4,南,1,南南東,23.4,98.4,0,0,0,18.5
262,2022-08-22T04:21:00,0.5,南,1,南南東,23.4,98.4,0,0,0,18.5
263,2022-08-22T04:22:00,0.5,南,1,南南東,23.4,98.4,0,0,0,18.5
264,2022-08-22T04:23:00,0.5,南,1,南南東,23.4,98.4,0,0,0,18.5
265,2022-08-22T04:24:00,0.5,南南東,1,南南東,23.4,98.4,0,0,0,18.5
266,2022-08-22T04:25:00,0.4,南南東,1,南南東,23.4,98.4,0,0,0,18.5
267,2022-08-22T04:26:00,0.4,南東,1,南南東,23.4,98.4,0,0,0,18.5
268,2022-08-22T04:27:00,0.3,南東,1,南南東,23.4,98.4,0,0,0,18.5
269,2022-08-22T04:28:00,0.3,東,1,南南東,23.4,98.4,0,0,0,18.5
270,2022-08-22T04:29:00,0.2,静穏,1,東,23.4,98.4,0,0,0,18.5
271,2022-08-22T04:30:00,0.2,静穏,1,東,23.4,98.3,0,0,0,18.5
272,2022-08-22T04:31:00,0.2,静穏,0.7,東,23.4,98.3,0,0,0,18.5
273,2022-08-22T04:32:00,0.2,静穏,0.6,東北東,23.4,98.3,0,0,0,18.5
274,2022-08-22T04:33:00,0.2,静穏,0.6,東北東,23.4,98.3,0,0,0,18.5
275,2022-08-22T04:34:00,0.3,北,0.6,東北東,23.4,98.3,0,0,0,18.5
276,2022-08-22T04:35:00,0.3,北北東,0.6,東北東,23.4,98.3,0,0,0,18.5
277,2022-08-22T04:36:00,0.3,北北東,0.6,東北東,23.3,98.3,0,0,0,18.5
278,2022-08-22T04:37:00,0.3,北北東,0.6,東北東,23.3,98.3,0,0,0,18.5
279,2022-08-22T04:38:00,0.3,北北東,0.6,東北東,23.4,98.3,0,0,0,18.5
280,2022-08-22T04:39:00,0.4,北北東,0.6,東北東,23.3,98.3,0,0,0,18.5
281,2022-08-22T04:40:00,0.4,北北東,0.8,北,23.3,98.3,0,0,0,18.5
282,2022-08-22T04:41:00,0.4,北北東,0.8,北,23.3,98.3,0,0,0,18.5
283,2022-08-22T04:42:00,0.4,北北東,0.8,北,23.3,98.2,0,0,0,18.5
284,2022-08-22T04:43:00,0.5,北北東,1,北北西,23.3,98.3,0,0,0,18.5
285,2022-08-22T04:44:00,0.5,北,1,北北西,23.3,98.2,0,0,0,18.5
286,2022-08-22T04:45:00,0.6,北,1.1,北,23.2,98.2,0,0,0,18.5
287,2022-08-22T04:46:00,0.7,北,1.1,北,23.2,98.3,0,0,0,18.5
288,2022-08-22T04:47:00,0.7,北,1.1,北,23.2,98.4,0,0,0,18.5
289,2022-08-22T04:48:00,0.7,北,1.1,北,23.3,98.4,0,0,0,18.5
290,2022-08-22T04:49:00,0.8,北,1.1,北,23.3,98.4,0,0,0,18.5
291,2022-08-22T04:50:00,0.8,北,1.1,北,23.3,98.4,0,0,0,18.5
292,2022-08-22T04:51:00,0.8,北,1.1,北,23.3,98.4,0,0,0,18.5
293,2022-08-22T04:52:00,0.7,北北東,1.1,北,23.3,98.4,0,0,0,18.5
294,2022-08-22T04:53:00,0.7,北北東,1.1,北,23.3,98.4,0,0,0,18.5
295,2022-08-22T04:54:00,0.6,北北東,1.1,北,23.3,98.4,0,0,0,18.5
296,2022-08-22T04:55:00,0.6,北東,1,北東,23.3,98.4,0,0,0,18.5
297,2022-08-22T04:56:00,0.6,北東,1,北東,23.3,98.3,0,0,0,18.5
298,2022-08-22T04:57:00,0.6,北東,1,北東,23.3,98.4,0,0,0,18.5
299,2022-08-22T04:58:00,0.6,北東,1,北東,23.3,98.4,0,0,0,18.5
300,2022-08-22T04:59:00,0.5,北東,1,北東,23.3,98.3,0,0,0,18.5
301,2022-08-22T05:00:00,0.5,北東,1,北東,23.3,98.4,0,0,0,18.5
302,2022-08-22T05:01:00,0.5,東北東,1,北東,23.2,98.3,0,0,0,18.5
303,2022-08-22T05:02:00,0.5,東北東,1,北東,23.2,98.3,0,0,0,18.5
304,2022-08-22T05:03:00,0.6,東北東,1,北東,23.2,98.3,0,0,0,18.5
305,2022-08-22T05:04:00,0.6,東北東,1,北東,23.2,98.3,0,0,0,18.5
306,2022-08-22T05:05:00,0.5,東北東,1,北東,23.2,98.4,0,0,0,18.5
307,2022-08-22T05:06:00,0.5,東北東,0.9,東,23.2,98.4,0,0,0,18.5
308,2022-08-22T05:07:00,0.5,東北東,0.9,東,23.2,98.4,0,0,0,18.5
309,2022-08-22T05:08:00,0.5,北東,0.9,東,23.2,98.3,0,0,0,18.5
310,2022-08-22T05:09:00,0.5,北東,0.9,東,23.2,98.3,0,0,0,18.5
311,2022-08-22T05:10:00,0.4,北東,0.9,東,23.2,98.3,0,0,0,18.5
312,2022-08-22T05:11:00,0.4,北北東,0.7,東北東,23.2,98.3,0,0,0,18.5
313,2022-08-22T05:12:00,0.3,北,0.7,東北東,23.2,98.3,0,0,0,18.5
314,2022-08-22T05:13:00,0.3,北北西,0.7,東北東,23.2,98.3,0,0,0,18.5
315,2022-08-22T05:14:00,0.2,静穏,0.6,西北西,23.2,98.2,0,0,0,18.5
316,2022-08-22T05:15:00,0.2,静穏,0.6,西北西,23.2,98.3,0,0,0,18.5
317,2022-08-22T05:16:00,0.2,静穏,0.6,西北西,23.2,98.2,0,0,0,18.5
318,2022-08-22T05:17:00,0.1,静穏,0.6,西北西,23.2,98.3,0,0,0,18.5
319,2022-08-22T05:18:00,0.1,静穏,0.6,西北西,23.2,98.3,0,0,0,18.5
320,2022-08-22T05:19:00,0.1,静穏,0.4,北西,23.2,98.3,0,0,0,18.5
321,2022-08-22T05:20:00,0.1,静穏,0.3,南南東,23.2,98.3,0,0,0,18.5
322,2022-08-22T05:21:00,0.1,静穏,0.3,南南東,23.3,98.3,0,0,0,18.5
323,2022-08-22T05:22:00,0.1,静穏,0.3,南南東,23.3,98.4,0,0,0,18.5
324,2022-08-22T05:23:00,0.1,静穏,0.3,南南東,23.3,98.4,0,0,0,18.5
325,2022-08-22T05:24:00,0.1,静穏,0.3,南南東,23.3,98.3,0,0,0,18.5
326,2022-08-22T05:25:00,0.1,静穏,0.4,西南西,23.3,98.3,0,0,0,18.5
327,2022-08-22T05:26:00,0.2,静穏,0.5,西,23.3,98.3,0,0,0,18.5
328,2022-08-22T05:27:00,0.2,静穏,0.7,西南西,23.4,98.3,0,0,0,18.5
329,2022-08-22T05:28:00,0.3,南西,0.8,西,23.4,98.3,0,0,0,18.5
330,2022-08-22T05:29:00,0.3,西南西,0.8,西,23.4,98.3,0,0,0,18.5
331,2022-08-22T05:30:00,0.3,西南西,0.8,西,23.4,98.3,0,0,0,18.5
332,2022-08-22T05:31:00,0.4,西南西,0.8,西,23.4,98.2,0,0,0,18.5
333,2022-08-22T05:32:00,0.4,西南西,0.8,西,23.4,98.2,0,0,0,18.5
334,2022-08-22T05:33:00,0.4,西南西,0.8,西,23.4,98.2,0,0,0,18.5
335,2022-08-22T05:34:00,0.4,西,0.8,西,23.4,98.2,0,0,0,18.5
336,2022-08-22T05:35:00,0.4,西,0.8,西,23.4,98.2,0,0,0,18.5
337,2022-08-22T05:36:00,0.4,西,0.8,西,23.4,98.2,0,0,0,18.5
338,2022-08-22T05:37:00,0.4,西,0.8,西,23.4,98.2,0,0,0,18.5
339,2022-08-22T05:38:00,0.3,西,0.8,西南西,23.4,98.2,0,0,0,18.5
340,2022-08-22T05:39:00,0.3,西,0.6,西,23.4,98.2,0,0,0,18.5
341,2022-08-22T05:40:00,0.3,西,0.5,西,23.4,98.2,0,0,0,18.5
342,2022-08-22T05:41:00,0.2,静穏,0.5,西,23.4,98.2,0,0,0,18.5
343,2022-08-22T05:42:00,0.3,西北西,0.6,北,23.4,98.2,0,0,0,18.5
344,2022-08-22T05:43:00,0.3,西北西,0.6,北,23.3,98.1,0,0,0,18.5
345,2022-08-22T05:44:00,0.3,西北西,0.6,北,23.3,98.1,0,0,0,18.5
346,2022-08-22T05:45:00,0.3,北西,0.6,北,23.3,98.1,0,0,0,18.5
347,2022-08-22T05:46:00,0.4,北西,0.6,北,23.3,98.2,0,0,0,18.5
348,2022-08-22T05:47:00,0.4,北西,0.6,北,23.3,98.2,0,0,0,18.5
349,2022-08-22T05:48:00,0.4,北北西,0.6,北,23.3,98.2,0,0,0,18.5
350,2022-08-22T05:49:00,0.4,北北西,0.6,北,23.2,98.2,0,0,0,18.5
351,2022-08-22T05:50:00,0.4,北北西,0.6,北,23.2,98.2,0,0,0,18.5
352,2022-08-22T05:51:00,0.4,北北西,0.6,北,23.2,98.2,0,0,0,18.5
353,2022-08-22T05:52:00,0.4,北北西,0.6,北西,23.2,98.3,0,0,0,18.5
354,2022-08-22T05:53:00,0.4,北北西,0.6,北西,23.2,98.3,0,0,0,18.5
355,2022-08-22T05:54:00,0.4,北北西,0.6,北西,23.2,98.2,0,0,0,18.5
356,2022-08-22T05:55:00,0.4,北北西,0.7,北,23.2,98.3,0,0,0,18.5
357,2022-08-22T05:56:00,0.5,北北西,0.8,北,23.2,98.3,0,0,0,18.5
358,2022-08-22T05:57:00,0.5,北北西,0.8,北,23.2,98.3,0,0,0,18.5
359,2022-08-22T05:58:00,0.5,北北西,0.8,北,23.2,98.3,0,0,0,18.5
360,2022-08-22T05:59:00,0.5,北北西,0.8,北,23.2,98.3,0,0,0,18.5
361,2022-08-22T06:00:00,0.5,北,0.8,北,23.2,98.3,0,0,0,18.5
362,2022-08-22T06:01:00,0.5,北,0.8,北,23.2,98.4,0,0,0,18.5
363,2022-08-22T06:02:00,0.5,北,0.8,北,23.2,98.4,0,0,0,18.5
364,2022-08-22T06:03:00,0.5,北,0.8,北,23.2,98.4,0,0,0,18.5
365,2022-08-22T06:04:00,0.5,北,0.8,北,23.3,98.4,0,0,0,18.5
366,2022-08-22T06:05:00,0.4,北,0.8,北,23.2,98.4,0,0,0,18.5
367,2022-08-22T06:06:00,0.4,北,0.7,北北東,23.3,98.4,0,0,0,18.5
368,2022-08-22T06:07:00,0.4,北,0.7,北北東,23.3,98.4,0,0,0,18.5
369,2022-08-22T06:08:00,0.4,北北東,0.7,北北東,23.3,98.4,0,0,0,18.5
370,2022-08-22T06:09:00,0.4,北北東,0.7,北北東,23.3,98.4,0,0,0,18.5
371,2022-08-22T06:10:00,0.4,北北東,0.7,北北東,23.3,98.4,0,0,0,18.5
372,2022-08-22T06:11:00,0.4,北北東,0.7,北北東,23.3,98.4,0,0,0,18.5
373,2022-08-22T06:12:00,0.4,北東,0.7,北北東,23.3,98.4,0,0,0,18.5
374,2022-08-22T06:13:00,0.4,北東,0.7,北北東,23.4,98.4,0,0,0,18.5
375,2022-08-22T06:14:00,0.3,北東,0.7,北北東,23.4,98.4,0,0,0,18.5
376,2022-08-22T06:15:00,0.4,東北東,0.9,東北東,23.4,98.3,0,0,0,18.5
377,2022-08-22T06:16:00,0.4,東北東,0.9,東北東,23.4,98.3,0,0,0,18.5
378,2022-08-22T06:17:00,0.3,東北東,0.9,東北東,23.5,98.4,0,0,0,18.5
379,2022-08-22T06:18:00,0.3,東北東,0.9,東北東,23.5,98.4,0,0,0,18.5
380,2022-08-22T06:19:00,0.3,東北東,0.9,東北東,23.5,98.3,0,0,0,18.5
381,2022-08-22T06:20:00,0.4,東北東,1,東,23.5,98.3,0,0,0,18.5
382,2022-08-22T06:21:00,0.5,東,1.1,東南東,23.5,98.2,0,0,0,18.5
383,2022-08-22T06:22:00,0.5,東,1.1,東南東,23.5,98.2,0,0,0,18.5
384,2022-08-22T06:23:00,0.5,東,1.1,東南東,23.5,98.2,0,0,0,18.5
385,2022-08-22T06:24:00,0.5,東,1.1,東南東,23.6,98.2,0,0,0,18.5
386,2022-08-22T06:25:00,0.5,東,1.1,東南東,23.6,98.2,0,0,0,18.5
387,2022-08-22T06:26:00,0.5,東,1.1,東南東,23.6,98.1,0,0,0,18.5
388,2022-08-22T06:27:00,0.5,東南東,1.1,東南東,23.5,98,0,0,0,18.5
389,2022-08-22T06:28:00,0.5,東南東,1.1,東南東,23.5,98.1,0,0,0,18.5
390,2022-08-22T06:29:00,0.5,東南東,1.1,東南東,23.6,98.2,0,0,0,18.5
391,2022-08-22T06:30:00,0.4,東南東,1.1,東南東,23.6,98,0,0,0,18.5
392,2022-08-22T06:31:00,0.4,東,1.1,東南東,23.6,98.1,0,0,0,18.5
393,2022-08-22T06:32:00,0.4,東,1.1,東南東,23.6,98.1,0,0,0,18.5
394,2022-08-22T06:33:00,0.4,東,1.1,東南東,23.7,98.2,0,0,0,18.5
395,2022-08-22T06:34:00,0.5,東北東,1.1,東南東,23.7,98.1,0,0,0,18.5
396,2022-08-22T06:35:00,0.5,北東,0.9,西南西,23.7,98.1,0,0,0,18.5
397,2022-08-22T06:36:00,0.5,西北西,1.1,西南西,23.7,97.9,0,0,0,18.5
398,2022-08-22T06:37:00,0.5,西北西,1.1,西南西,23.7,97.9,0,0,0,18.5
399,2022-08-22T06:38:00,0.6,西,1.1,西南西,23.7,97.9,0,0,0,18.5
400,2022-08-22T06:39:00,0.6,西,1.1,西南西,23.7,97.8,0,0,0,18.5
401,2022-08-22T06:40:00,0.6,西南西,1.1,西南西,23.7,97.7,0,0,0,18.5
402,2022-08-22T06:41:00,0.6,西南西,1.1,西南西,23.7,97.7,0,0,0,18.5
403,2022-08-22T06:42:00,0.6,西南西,1.1,西南西,23.7,97.8,0,0,0,18.5
404,2022-08-22T06:43:00,0.6,西南西,1.1,西南西,23.7,97.8,0,0,0,18.5
405,2022-08-22T06:44:00,0.5,西南西,1.1,西南西,23.7,97.9,0,0,0,18.5
406,2022-08-22T06:45:00,0.5,西南西,1.1,西南西,23.7,97.9,0,0,0,18.5
407,2022-08-22T06:46:00,0.5,西南西,1.1,西南西,23.8,97.9,0,0,0,18.5